Location: Peebles
(55.6412°N, 3.1714°W)
Time: 10:16:38
(UTC+01:00)

Cosmos 2263 Rocket - Pass Details

Date: 26 September 2021
Orbit: 825 x 847 km, 71.0° (Epoch: 21 October)

Event Time Altitude Azimuth Distance (km) Brightness Sun altitude
Rises 20:21:45 0° 307° (NW) 3,401 6.8 -12.2°
Reaches altitude 10° 20:25:05 10° 327° (NNW) 2,461 5.4 -12.6°
Maximum altitude 20:28:47 18° 8° (N) 1,975 4.2 -13.1°
Drops below altitude 10° 20:32:28 10° 50° (NE) 2,449 4.3 -13.6°
Enters shadow 20:33:44 - 59° (ENE) 2,770 4.5 -13.8°
